This demonstration page uses our WeatherBlox Daily Observations layout. Learn more.

41.55636, -103.73856

Hourly Observations for August 23, 2015

Temp ( °F °C ) Dew Point ( °F °C ) Humidity (%) Winds ( mph kmh ) Pressure ( in mb ) Visibility ( mi km ) Precip ( " mm )
12:53 am 00:53 Clear 44 6.7 38 3.3 79 79 W 6 9 30.23 1024 10 16.0934 0 0
1:53 am 01:53 Clear 43 6.1 38 3.3 82 82 NW 7 11 30.22 1023 10 16.0934 0 0
2:53 am 02:53 Clear 43 6.1 37 2.8 80 80 W 5 7 30.22 1023 10 16.0934 0 0
3:53 am 03:53 Clear 42 5.6 37 2.8 82 82 W 8 13 30.22 1023 10 16.0934 0 0
4:53 am 04:53 Clear 40 4.4 36 2.2 86 86 WNW 3 6 30.23 1024 10 16.0934 0 0
5:53 am 05:53 Clear 39 3.9 35 1.7 86 86 NW 7 11 30.24 1024 10 16.0934 0 0
6:53 am 06:53 Sunny 41 5 37 2.8 86 86 NNW 7 11 30.26 1025 10 16.0934 0 0
7:53 am 07:53 Sunny 47 8.3 39 3.9 74 74 NNW 6 9 30.28 1025 10 16.0934 0 0
8:53 am 08:53 Sunny 52 11.1 39 3.9 61 61 NW 7 11 30.27 1025 10 16.0934 0 0
9:53 am 09:53 Sunny 57 13.9 38 3.3 49 49 Calm 30.26 1025 10 16.0934 0 0
10:53 am 10:53 Sunny 61 16.1 35 1.7 38 38 Calm 30.25 1024 10 16.0934 0 0
11:53 am 11:53 Sunny 64 17.8 34 1.1 33 33 Calm 30.24 1024 10 16.0934 0 0
12:53 pm 12:53 Sunny 67 19.4 37 2.8 33 33 SE 7 11 30.21 1023 10 16.0934 0 0
1:53 pm 13:53 Sunny 69 20.6 38 3.3 32 32 ESE 5 7 30.19 1022 10 16.0934 0 0
2:53 pm 14:53 Sunny 72 22.2 40 4.4 31 31 VRB 3 6 30.15 1021 10 16.0934 0 0
3:53 pm 15:53 Sunny 74 23.3 43 6.1 33 33 E 8 13 30.12 1020 10 16.0934 0 0
4:53 pm 16:53 Sunny 76 24.4 41 5 29 29 SE 9 15 30.09 1019 10 16.0934 0 0
5:53 pm 17:53 Sunny 76 24.4 42 5.6 30 30 SE 10 17 30.08 1019 10 16.0934 0 0
8:53 pm 20:53 Clear 59 15 46 7.8 62 62 E 7 11 30.12 1020 10 16.0934 0 0
9:53 pm 21:53 Clear 56 13.3 46 7.8 70 70 E 5 7 30.13 1020 10 16.0934 0 0
11:53 pm 23:53 Clear 52 11.1 45 7.2 77 77 ESE 7 11 30.12 1020 10 16.0934 0 0

Powered by AerisWeather